Regional Weather Roundup
Issued by NWS

Home | Current Version | Previous Version | Text Only | Print | Product List | Glossary Off
Versions: 1 2 3 4 5 6 7 8 9 10 11 12 13 14 15 16 17 18 19 20 21 22 23 24 25 26 27 28 29 30 31 32 33 34 35 36 37 38 39 40 41 42 43 44 45 46 47 48 49 50

000
ASUS43 KMKX 221621
RWRWI

WISCONSIN REGIONAL WEATHER ROUNDUP
NATIONAL WEATHER SERVICE MILWAUKEE/SULLIVAN WI
1100 AM CDT WED MAR 22 2017

NOTE: "FAIR" INDICATES FEW OR NO CLOUDS BELOW 12,000 FEET WITH NO
SIGNIFICANT WEATHER AND/OR OBSTRUCTIONS TO VISIBILITY.

WIZ001-002-006>008-014>016-023>028-221700-
NORTHWEST WISCONSIN

CITY           SKY/WX    TMP DP  RH WIND       PRES   REMARKS
SUPERIOR ARPT  SUNNY     28   7  41 CALM      30.58S
ASHLAND        SUNNY     28  11  48 CALM      30.59S
HAYWARD        SUNNY     26   6  42 S8        30.55F WCI  18
SIREN          SUNNY     29   5  36 S9        30.56F WCI  21
CUMBERLAND     SUNNY     28   7  40 SE9       30.55S WCI  20
RICE LAKE      SUNNY     29   8  41 CALM      30.58F
CHETEK         SUNNY     28   7  41 S9        30.58S WCI  19
LADYSMITH      SUNNY     27   8  43 CALM      30.59R
EAU CLAIRE     SUNNY     28   7  41 SE8       30.58S WCI  20
MENOMONIE      SUNNY     32   6  34 SE10      30.57F WCI  23
NEW RICHMOND   SUNNY     30   6  35 SE12      30.56F WCI  21
OSCEOLA        SUNNY     31   9  39 SE13      30.58F WCI  21
$$

WIZ003>005-009-010-017-018-221700-
NORTH CENTRAL WISCONSIN

CITY           SKY/WX    TMP DP  RH WIND       PRES   REMARKS
MANITOWISH WTR SUNNY     22   6  51 E5        30.53S WCI  16
ARBOR VITAE    SUNNY     23   8  52 S3        30.53S
WOODRUFF       SUNNY     23   8  52 S3        30.53S
RHINELANDER    SUNNY     23   7  50 E6        30.54S WCI  16
EAGLE RIVER    SUNNY     22   5  49 CALM      30.54S
LAND O LAKES   SUNNY     22   6  48 CALM      30.55S
PHILLIPS       SUNNY     25   7  47 SE3       30.55R
TOMAHAWK       SUNNY     24   6  47 CALM      30.56R
MEDFORD        SUNNY     24   7  48 SE6       30.56R WCI  16
MERRILL        SUNNY     25   8  49 S5        30.58S WCI  19
$$

WIZ029-030-035-036-043>047-221700-
CENTRAL WISCONSIN

CITY           SKY/WX    TMP DP  RH WIND       PRES   REMARKS
WAUSAU         SUNNY     25   7  46 S7        30.57R WCI  17
MOSINEE        SUNNY     25   9  50 E5        30.58S WCI  19
MARSHFIELD     SUNNY     25   8  48 SE9       30.57R WCI  15
STEVENS POINT  SUNNY     24   6  46 E7        30.60S WCI  16
WAUPACA        SUNNY     29   7  38 E7        30.62S WCI  22
WAUTOMA        NOT AVBL
WISC RAPIDS    SUNNY     27   8  44 SE6       30.61S WCI  20
CAMP DOUGLAS   SUNNY     28   7  40 VRB3      30.60R
$$

WIZ011>013-019>022-031-037>040-048>050-221700-
NORTHEAST WISCONSIN

CITY           SKY/WX    TMP DP  RH WIND       PRES   REMARKS
ANTIGO         SUNNY     22   6  49 CALM      30.56S
SHAWANO        SUNNY     28  10  46 NE5       30.63S WCI  23
OCONTO         PTSUNNY   25  11  55 E8        30.64R WCI  16
STURGEON BAY   MOSUNNY   25  13  60 NE7       30.63R WCI  17
GREEN BAY      SUNNY     28  15  58 N3        30.63R
MANITOWOC      CLOUDY    27  17  66 N3        30.63R
APPLETON       MOSUNNY   27   9  46 E7        30.60R WCI  19
CLINTONVILLE   SUNNY     28   5  37 SE5       30.62R WCI  23
OSHKOSH        MOSUNNY   25  12  58 NE6       30.62R WCI  18
$$

WIZ032>034-041-042-053>061-221700-
SOUTHWEST WISCONSIN

CITY           SKY/WX    TMP DP  RH WIND       PRES   REMARKS
LA CROSSE      SUNNY     31   5  33 SE5       30.59F WCI  26
SPARTA         SUNNY     30   7  37 E9        30.60F WCI  22
VIROQUA        SUNNY     30   7  38 SE10      30.55F WCI  21
BOSCOBEL       SUNNY     31   5  33 SE5       30.60F WCI  26
PRAIRIE DU CHI SUNNY     31   6  34 E9        30.59F WCI  23
PLATTEVILLE    SUNNY     31  13  48 SE9       30.58S WCI  23
$$

WIZ056-057-062-063-064-067-068-221700-
SOUTH CENTRAL WISCONSIN

CITY           SKY/WX    TMP DP  RH WIND       PRES   REMARKS
REEDSBURG      SUNNY     29   7  40 E6        30.60S WCI  22
BARABOO/DELLS  SUNNY     28   8  42 E6        30.60S WCI  21
LONE ROCK      SUNNY     29   7  39 E6        30.61F WCI  23
MINERAL POINT  SUNNY     32  10  40 E10       30.56F WCI  24
MADISON        SUNNY     29   9  43 E10       30.59F WCI  20
MIDDLETON      SUNNY     30  10  42 E9        30.60F WCI  22
WATERTOWN      SUNNY     30  15  53 NE6       30.59F WCI  24
MONROE         SUNNY     30  12  47 NE9       30.56F WCI  22
JANESVILLE     SUNNY     32  14  47 E13G18    30.59R WCI  22
$$

WIZ051-052-058>065-066-070>072-221700-
SOUTHEAST WISCONSIN

CITY           SKY/WX    TMP DP  RH WIND       PRES   REMARKS
MILWAUKEE      CLOUDY    30  16  56 NE10      30.61R WCI  21
WAUKESHA       PTSUNNY   28  16  59 E12       30.61R WCI  18
MILWAUKEE/TIMM CLOUDY    28  12  50 E8        30.62R WCI  20
RACINE         CLOUDY    30  16  56 NE12      30.62R WCI  20
KENOSHA        CLOUDY    31  17  56 E10       30.60R WCI  22
FOND DU LAC    SUNNY     27  10  49 SE5       30.61S WCI  22
SHEBOYGAN      CLOUDY    27  15  61 NE3       30.62R
WEST BEND      CLOUDY    28  16  59 NE9       30.60S WCI  20
JUNEAU         MOSUNNY   28  13  54 E6        30.61S WCI  21
$$

LSZ147-162-221700-
LAKE SUPERIOR

STATION/POSITION TIME  TEMP    WIND        PRES    WAVE
                       AIR SEA DIR/SP/G            HT/PER
                 (UTC) (F)     (DEG/KT/KT) (MB)    (FT/S)
DEVILS ISLAND    1600   24      90/  6/  8 1037.6R
PORT WING        1530   26     190/  2/  7 1035.9S
SAXON HARBOR     1540   26     250/  1/  5 1035.6F
$$

LMZ867-665-643>646-221700-
LAKE MICHIGAN

STATION/POSITION TIME  TEMP    WIND        PRES    WAVE
                       AIR SEA DIR/SP/G            HT/PER
                 (UTC) (F)     (DEG/KT/KT) (MB)    (FT/S)
CHAMBERS ISLAND  1540   22      30/  8/ 10 1036.6S
NORTHPORT PIER   1540   22      80/  7/ 10 1036.9S
SISTER BAY       1535   35      30/ 10/ 12   N/A
KEWAUNEE LAKESHO 1600   25      30/  8/ 11 1036.4
SHEBOYGAN LAKESH 1600   26     360/  9/ 11 1037.8R
PORT WASHINGTON  1530   28      40/  6/ 13 1037.6R
MILWAUKEE LAKESH 1600   27      40/  7/  8   N/A
KENOSHA   LAKESH 1600   28      60/ 11/ 14 1036.6
$$

TC  - TEMPERATURE IN CELSIUS
VSB - VISIBILITY IN STATUTE MILES
WCI - WIND CHILL INDEX
HX  - HEAT INDEX





USA.gov is the U.S. government's official web portal to all federal, state and local government web resources and services.